Home > Weather > Easter Island > Past weeks

Flag for Chile Past Weather in Easter Island, Chile — Yesterday and Last 2 Weeks

Now
66 °F

Passing clouds.


Feels Like: 66 °F
Forecast: 62 / 71 °F
Wind: No wind

Location: Isla De Pascua

Current Time: Aug 29, 2016 at 12:49:07 AM

Latest Report: Aug 29, 2016 at 12:00 AM


Visibility: N/A

Pressure: 30.27 "Hg

Humidity: 88%

Dew Point: 63 °F

Location of Easter IslandLocation

Past Weather in Easter Island — Graph

°F

Easter Island Temperature Yesterday

Maximum temperature yesterday: 73 °F (at 3:00 PM)
Minimum temperature yesterday: 64 °F (at 10:00 PM)
Average temperature yesterday: 68 °F

High & Low Weather Summary for the Past Weeks

 TemperatureHumidityPressure
High73 °F (Aug 17, 1:00 PM)100% (Aug 16, 10:00 PM)30.36 "Hg (Aug 16, 10:00 PM)
Low54 °F (Aug 25, 11:00 PM)32% (Aug 22, 1:00 PM)29.89 "Hg (Aug 14, 6:00 AM)
Average65 °F79%30.15 "Hg
* Reported Aug 13 11:00 PM — Aug 28 11:00 PM, Easter Island, Weather by CustomWeather, © 2016

Note: Actual official high and low records may vary slightly from our data, if they occured in-between our weather recording intervals... More about our weather records

Advertising

Easter Island Weather History for the Previous 24 Hours

Scroll right to see more
 ConditionsComfort  
Time TempWeatherWind HumidityBarometerVisibility
11:00 PM
Sun, Aug 28
66 °FPassing clouds.2 mph88%30.27 "HgN/A
10:00 PM64 °FPassing clouds.2 mph88%30.27 "HgN/A
9:00 PM66 °FPassing clouds.No wind83%30.24 "HgN/A
8:00 PM70 °FScattered clouds.3 mph78%30.24 "HgN/A
7:00 PM72 °FPassing clouds.8 mph73%30.21 "HgN/A
5:00 PM73 °FScattered clouds.12 mph74%30.21 "HgN/A
4:00 PM72 °FScattered clouds.13 mph78%30.21 "HgN/A
3:00 PM73 °FScattered clouds.12 mph74%30.24 "HgN/A
2:00 PM72 °FScattered clouds.12 mph78%30.27 "HgN/A
1:00 PM72 °FScattered clouds.15 mph78%30.27 "HgN/A
12:00 PM72 °FScattered clouds.10 mph78%30.27 "HgN/A
11:00 AM70 °FScattered clouds.12 mph83%30.24 "HgN/A
10:00 AM68 °FScattered clouds.8 mph88%30.24 "HgN/A
9:00 AM66 °FPassing clouds.7 mph88%30.21 "HgN/A
8:00 AM66 °FPassing clouds.5 mph88%30.21 "HgN/A
7:00 AM66 °FPassing clouds.3 mph88%30.18 "HgN/A
6:00 AM66 °FPassing clouds.6 mph88%30.18 "HgN/A
5:00 AM66 °FPassing clouds.3 mph88%30.21 "HgN/A
4:00 AM66 °FPassing clouds.2 mph83%30.21 "HgN/A
3:00 AM66 °FPassing clouds.5 mph88%30.24 "HgN/A
2:00 AM66 °FPassing clouds.No wind83%30.24 "HgN/A
1:00 AM66 °FPassing clouds.1 mph83%30.24 "HgN/A
12:00 AM68 °FPassing clouds.2 mph78%30.24 "HgN/A
Weather by CustomWeather, © 2016

See weather overviewHow to use our weather pages